Weather History for Cumberland, MD

Change the Weather History Date:

Saturday, January 19, 2013

  Actual Average (KMRB) Record (KMRB)
Temperature  
Mean Temperature 40 °F 31 °F  
Max Temperature 59 °F 39 °F 68 °F (1951)
Min Temperature 21 °F 22 °F -17 °F (1994)
Degree Days  
Heating Degree Days 25 34  
Month to date heating degree days 646  
Since 1 July heating degree days 2672  
Cooling Degree Days 0 0  
Month to date cooling degree days 0  
Year to date cooling degree days 0  
Moisture  
Dew Point 22 °F    
Average Humidity 63    
Maximum Humidity 100    
Minimum Humidity 25    
Precipitation  
Precipitation 0.00 in 0.08 in 1.47 in (1987)
Month to date precipitation 1.45  
Year to date precipitation 1.45  
Sea Level Pressure  
Sea Level Pressure 30.17 in    
Wind  
Wind Speed 3 mph (SSW)    
Max Wind Speed 18 mph    
Max Gust Speed 26 mph    
Visibility 10 miles    
Events      
T = Trace of Precipitation, MM = Missing Value Source: NWS Daily Summary

Daily Weather History Graph

Daily Weather History Graph

Search for Another Location

Airport:

Trip Planner

Search our weather history database for the weather conditions in past years. The results will help you decide how hot, cold, wet, or windy it might be!

Date:

Astronomy

Jan. 19, 2013 Rise Set
Actual Time 7:32 AM EST 5:20 PM EST
Civil Twilight 7:02 AM EST 5:49 PM EST
Nautical Twilight 6:29 AM EST 6:22 PM EST
Astronomical Twilight 5:57 AM EST 6:54 PM EST
Moon 11:45 AM EST (1/19) 1:04 AM EST (1/19)
Length of Visible Light 10h 46m
Length of Day
9h 48m
First Quarter, 57% of the Moon is Illuminated
Jan 19
First Quarter
Jan 26
Full
Feb 3
Last Quarter
Feb 10
New
Feb 17
First Quarter

Hourly Weather History & Observations

Time (EST) Temp. Windchill Dew Point Humidity Pressure Visibility Wind Dir Wind Speed Gust Speed Precip Events Conditions
12:00 AM 24.8 °F - 21.2 °F 86% 30.36 in 10.0 mi Calm Calm - N/A   Clear
12:21 AM 24.8 °F - 21.2 °F 86% 30.35 in 10.0 mi Calm Calm - N/A   Clear
12:42 AM 24.8 °F - 21.2 °F 86% 30.35 in 10.0 mi Calm Calm - N/A   Clear
1:04 AM 24.8 °F - 21.2 °F 86% 30.35 in 10.0 mi Calm Calm - N/A   Clear
1:25 AM 23.0 °F - 21.2 °F 93% 30.34 in 10.0 mi Calm Calm - N/A   Clear
1:46 AM 23.0 °F - 21.2 °F 93% 30.34 in 10.0 mi Calm Calm - N/A   Clear
2:08 AM 23.0 °F - 21.2 °F 93% 30.34 in 10.0 mi Calm Calm - N/A   Clear
2:29 AM 23.0 °F - 21.2 °F 93% 30.34 in 10.0 mi Calm Calm - N/A   Clear
2:50 AM 23.0 °F - 21.2 °F 93% 30.33 in 10.0 mi Calm Calm - N/A   Clear
3:12 AM 23.0 °F - 21.2 °F 93% 30.33 in 10.0 mi Calm Calm - N/A   Clear
3:33 AM 21.2 °F - 19.4 °F 93% 30.32 in 10.0 mi Calm Calm - N/A   Clear
3:54 AM 21.2 °F - 21.2 °F 100% 30.32 in 10.0 mi Calm Calm - N/A   Clear
4:16 AM 21.2 °F - 21.2 °F 100% 30.31 in 10.0 mi Calm Calm - N/A   Scattered Clouds
4:37 AM 23.0 °F - 21.2 °F 93% 30.30 in 10.0 mi Calm Calm - N/A   Clear
4:58 AM 23.0 °F - 21.2 °F 93% 30.29 in 10.0 mi Calm Calm - N/A   Clear
5:19 AM 23.0 °F - 21.2 °F 93% 30.30 in 10.0 mi Calm Calm - N/A   Clear
5:41 AM 21.2 °F - 21.2 °F 100% 30.30 in 10.0 mi Calm Calm - N/A   Scattered Clouds
6:02 AM 21.2 °F - 21.2 °F 100% 30.29 in 10.0 mi Calm Calm - N/A   Clear
6:23 AM 21.2 °F - 21.2 °F 100% 30.29 in 10.0 mi Calm Calm - N/A   Clear
6:45 AM 21.2 °F - 21.2 °F 100% 30.28 in 10.0 mi Calm Calm - N/A   Scattered Clouds
7:06 AM 21.2 °F - 21.2 °F 100% 30.28 in 10.0 mi Calm Calm - N/A   Clear
7:27 AM 21.2 °F - 21.2 °F 100% 30.28 in 10.0 mi Calm Calm - N/A   Clear
7:48 AM 21.2 °F - 21.2 °F 100% 30.28 in 10.0 mi Calm Calm - N/A   Clear
8:10 AM 23.0 °F - 21.2 °F 93% 30.28 in 10.0 mi Calm Calm - N/A   Clear
8:31 AM 24.8 °F - 23.0 °F 93% 30.28 in 10.0 mi Calm Calm - N/A   Clear
8:52 AM 26.6 °F - 24.8 °F 93% 30.28 in 10.0 mi Calm Calm - N/A   Clear
9:13 AM 28.4 °F - 26.6 °F 93% 30.28 in 10.0 mi Calm Calm - N/A   Clear
9:35 AM 30.2 °F 26.7 °F 26.6 °F 86% 30.28 in 10.0 mi SSE 3.5 mph - N/A   Clear
9:56 AM 32.0 °F 26.4 °F 28.4 °F 87% 30.27 in 10.0 mi SSW 5.8 mph - N/A   Clear
10:17 AM 42.8 °F 37.5 °F 26.6 °F 53% 30.27 in 10.0 mi SSW 9.2 mph - N/A   Clear
10:39 AM 50.0 °F - 24.8 °F 37% 30.25 in 10.0 mi SSW 10.4 mph 16.1 mph N/A   Clear
11:00 AM 51.8 °F - 23.0 °F 33% 30.24 in 10.0 mi SW 13.8 mph 20.7 mph N/A   Clear
11:21 AM - - - N/A% 30.22 in - North - - N/A   Unknown
11:42 AM 53.6 °F - 23.0 °F 30% 30.20 in 10.0 mi SSW 13.8 mph 24.2 mph N/A   Unknown
12:04 PM 55.4 °F - 23.0 °F 29% 30.18 in 10.0 mi SW 11.5 mph 26.5 mph N/A   Clear
12:25 PM 55.4 °F - 23.0 °F 29% 30.17 in 10.0 mi WSW 16.1 mph 21.9 mph N/A   Clear
12:46 PM 57.2 °F - 23.0 °F 27% 30.15 in 10.0 mi SW 12.7 mph 19.6 mph N/A   Clear
1:07 PM 57.2 °F - 23.0 °F 27% 30.14 in 10.0 mi WSW 18.4 mph 21.9 mph N/A   Clear
2:11 PM 59.0 °F - 23.0 °F 25% 30.10 in 10.0 mi SW 8.1 mph - N/A   Clear
2:32 PM 59.0 °F - 23.0 °F 25% 30.09 in 10.0 mi SSW 9.2 mph - N/A   Clear
2:54 PM 59.0 °F - 23.0 °F 25% 30.08 in 10.0 mi SSW 12.7 mph 16.1 mph N/A   Clear
3:15 PM 59.0 °F - 23.0 °F 25% 30.07 in 10.0 mi SSW 9.2 mph - N/A   Clear
3:36 PM 59.0 °F - 23.0 °F 25% 30.06 in 10.0 mi South 13.8 mph 18.4 mph N/A   Clear
3:57 PM 59.0 °F - 23.0 °F 25% 30.05 in 10.0 mi SSW 15.0 mph - N/A   Clear
4:19 PM 57.2 °F - 21.2 °F 25% 30.05 in 10.0 mi SSW 9.2 mph - N/A   Clear
4:40 PM 55.4 °F - 21.2 °F 26% 30.04 in 10.0 mi SSW 11.5 mph 20.7 mph N/A   Clear
5:01 PM 53.6 °F - 19.4 °F 26% 30.04 in 10.0 mi SSW 8.1 mph - N/A   Clear
5:22 PM 53.6 °F - 19.4 °F 26% 30.03 in 10.0 mi SW 8.1 mph - N/A   Clear
5:44 PM 51.8 °F - 19.4 °F 28% 30.02 in 10.0 mi South 4.6 mph - N/A   Clear
6:05 PM 50.0 °F - 19.4 °F 30% 30.02 in 10.0 mi South 3.5 mph - N/A   Clear
6:26 PM 48.2 °F - 19.4 °F 32% 30.02 in 10.0 mi SSW 5.8 mph - N/A   Clear
6:47 PM 48.2 °F - 19.4 °F 32% 30.02 in 10.0 mi SSE 5.8 mph - N/A   Clear
7:09 PM 48.2 °F - 19.4 °F 32% 30.01 in 10.0 mi South 4.6 mph - N/A   Clear
7:30 PM 44.6 °F 40.7 °F 21.2 °F 39% 30.01 in 10.0 mi South 6.9 mph - N/A   Clear
7:51 PM 44.6 °F - 23.0 °F 43% 30.01 in 10.0 mi Calm Calm - N/A   Clear
8:34 PM 42.8 °F 41.1 °F 21.2 °F 42% 30.00 in 10.0 mi South 3.5 mph - N/A   Clear
8:55 PM 41.0 °F - 24.8 °F 53% 29.99 in 10.0 mi Calm Calm - N/A   Clear
9:16 PM 39.2 °F 37.0 °F 24.8 °F 56% 29.98 in 10.0 mi South 3.5 mph - N/A   Clear
9:38 PM 37.4 °F - 24.8 °F 60% 29.97 in 10.0 mi Calm Calm - N/A   Clear
9:59 PM 37.4 °F - 24.8 °F 60% 29.97 in 10.0 mi Calm Calm - N/A   Clear
10:20 PM 37.4 °F 32.8 °F 24.8 °F 60% 29.96 in 10.0 mi SSE 5.8 mph - N/A   Clear
10:41 PM 41.0 °F - 24.8 °F 53% 29.95 in 10.0 mi Calm Calm - N/A   Clear
11:03 PM 37.4 °F 34.9 °F 24.8 °F 60% 29.93 in 10.0 mi SSE 3.5 mph - N/A   Clear
11:24 PM 35.6 °F - 24.8 °F 65% 29.92 in 10.0 mi Calm Calm - N/A   Clear
11:45 PM 35.6 °F 29.9 °F 24.8 °F 65% 29.93 in 10.0 mi NNW 6.9 mph - N/A   Clear